Volver al catálogo

PSLV DEB

ActivoSSO
NORAD 27585·DEBRIS·🇮🇳 India

Lanzado Oct 22, 2001 desde Satish Dhawan Space Centre

Loading…

Próximos Pases (próximas 24 horas)

TLE

ActualizadoSource: Space-Track

Época: Sep 14, 2026, 01:14 UTC

1 27585U 01049ND  26257.05143626  .00001358  00000-0  15456-3 0  9991
2 27585  98.2820 293.6914 0050004   2.2108 357.9319 14.87151293315225

Sigue PSLV DEB en tiempo real con AllMySat

Download on the App Store